Weather History for Herat, Afghanistan

Change the Weather History Date:

Thursday, February 14, 2013

  Actual Average Record
Temperature  
Mean Temperature 42 °F -  
Max Temperature 48 °F 58 °F - ()
Min Temperature 37 °F 35 °F - ()
Degree Days  
Heating Degree Days 22    
Moisture  
Dew Point 39 °F    
Average Humidity 85    
Maximum Humidity 93    
Minimum Humidity 70    
Precipitation  
Precipitation 0.00 in 0.07 in - ()
Sea Level Pressure  
Sea Level Pressure 30.09 in    
Wind  
Wind Speed 4 mph ()    
Max Wind Speed 10 mph    
Max Gust Speed -    
Visibility 3.9 miles    
Events Rain    
T = Trace of Precipitation, MM = Missing Value Source: Averaged Metar Reports

Daily Weather History Graph

Daily Weather History Graph

Search for Another Location

Airport:

Trip Planner

Search our weather history database for the weather conditions in past years. The results will help you decide how hot, cold, wet, or windy it might be!

Date:

Astronomy

Feb. 14, 2013 Rise Set
Actual Time 7:07 AM AFT 6:03 PM AFT
Civil Twilight 6:41 AM AFT 6:29 PM AFT
Nautical Twilight 6:12 AM AFT 6:58 PM AFT
Astronomical Twilight 5:42 AM AFT 7:28 PM AFT
Moon 9:09 AM AFT (2/14) 10:26 PM AFT (2/14)
Length of Visible Light 11h 47m
Length of Day
10h 56m
Waxing Crescent, 18% of the Moon is Illuminated
Feb 14
Waxing Crescent
Feb 18
First Quarter
Feb 26
Full
Mar 5
Last Quarter
Mar 12
New

Hourly Weather History & Observations

Time (AFT) Temp. Windchill Dew Point Humidity Pressure Visibility Wind Dir Wind Speed Gust Speed Precip Events Conditions
12:25 AM 48.2 °F - 44.6 °F 87% 30.06 in 6.2 mi South 3.5 mph - N/A   Mostly Cloudy
1:24 AM 46.4 °F - 42.8 °F 87% 30.06 in 6.2 mi Variable 1.2 mph - N/A   Mostly Cloudy
2:24 AM 48.2 °F - 42.8 °F 82% 30.06 in 6.2 mi SE 1.2 mph - N/A   Mostly Cloudy
3:25 AM 48.2 °F - 42.8 °F 82% 30.06 in 6.2 mi NW 2.3 mph - N/A   Mostly Cloudy
4:24 AM 46.4 °F - 44.6 °F 93% 30.06 in 3.1 mi Calm Calm - N/A   Mostly Cloudy
5:24 AM 46.4 °F 45.2 °F 44.6 °F 93% 30.06 in 3.1 mi WSW 3.5 mph - N/A   Mostly Cloudy
6:25 AM 44.6 °F - 41.0 °F 87% 30.06 in 4.3 mi WNW 2.3 mph - N/A   Mostly Cloudy
7:25 AM 44.6 °F - 41.0 °F 87% 30.06 in 5.0 mi SE 2.3 mph - N/A   Mostly Cloudy
8:25 AM 44.6 °F - 42.8 °F 93% 30.09 in 4.3 mi Variable 1.2 mph - N/A   Mostly Cloudy
9:24 AM 46.4 °F 45.2 °F 41.0 °F 81% 30.09 in 4.3 mi North 3.5 mph - N/A   Mostly Cloudy
10:24 AM 46.4 °F 42.9 °F 41.0 °F 81% 30.09 in 3.7 mi WSW 6.9 mph - N/A   Mostly Cloudy
11:25 AM 46.4 °F 41.9 °F 41.0 °F 81% 30.09 in 4.3 mi WSW 9.2 mph - N/A   Light Drizzle
11:50 AM 44.6 °F 39.2 °F 41.0 °F 87% 30.12 in 3.1 mi WSW 10.4 mph - N/A Rain Light Rain
11:57 AM 44.6 °F 40.2 °F 41.0 °F 87% 30.12 in 1.6 mi WSW 8.1 mph - N/A Rain Light Rain Showers
12:01 PM 44.6 °F 39.7 °F 41.0 °F 87% 30.09 in 0.8 mi WSW 9.2 mph - N/A Rain Rain Showers
12:25 PM 42.8 °F 38.6 °F 41.0 °F 93% 30.12 in 1.6 mi WSW 6.9 mph - N/A Rain Light Rain
1:24 PM 42.8 °F 38.6 °F 41.0 °F 93% 30.09 in 1.6 mi West 6.9 mph - N/A Rain Light Rain
2:25 PM 42.8 °F 38.0 °F 37.4 °F 81% 30.09 in 4.3 mi SW 8.1 mph - N/A Rain Light Rain
3:25 PM 41.0 °F 35.8 °F 37.4 °F 87% 30.09 in 1.6 mi WSW 8.1 mph - N/A Rain Rain
4:24 PM 41.0 °F 37.1 °F 37.4 °F 87% 30.09 in 1.9 mi WSW 5.8 mph - N/A Rain Light Rain
5:25 PM 41.0 °F 35.8 °F 35.6 °F 81% 30.09 in 3.1 mi WSW 8.1 mph - N/A   Light Drizzle
6:24 PM 41.0 °F 35.8 °F 35.6 °F 81% 30.09 in 3.7 mi WSW 8.1 mph - N/A   Overcast
7:24 PM 39.2 °F 34.2 °F 35.6 °F 87% 30.09 in 3.7 mi WSW 6.9 mph - N/A Rain Light Rain
8:25 PM 39.2 °F 34.2 °F 33.8 °F 81% 30.09 in 3.7 mi WSW 6.9 mph - N/A Rain Light Rain
9:24 PM 37.4 °F 31.4 °F 33.8 °F 87% 30.09 in 6.2 mi WSW 8.1 mph - N/A   Overcast
10:24 PM 39.2 °F 35.9 °F 32.0 °F 75% 30.12 in 6.2 mi WSW 4.6 mph - N/A   Unknown
11:24 PM 39.2 °F 37.0 °F 30.2 °F 70% 30.12 in 6.2 mi Variable 3.5 mph - N/A   Unknown